User: anonymous   Login
Location: Wawayanda State Park
(41.1833°N, 74.4333°W)
Time: 04:15:41
(UTC-05:00)
Language:

Landsat 7 - Orbit

View from above orbital plane
View from above orbital plane
View from above satellite
View from above satellite

Ground track
Ground track

The orbit data is extracted from the following two-line orbital elements,

1 25682U 99020A   16036.75189290  .00000136  00000-0  40376-4 0  9994
2 25682  98.2291 108.8585 0001410  84.7345 275.4018 14.57105054894154
Epoch (UTC): 05 February 2016 18:02:43
Eccentricity: 0.0001410
inclination: 98.2291°
perigee height: 701 km
apogee height: 703 km
right ascension of ascending node: 108.8585°
argument of perigee: 84.7345°
revolutions per day: 14.57105054
mean anomaly at epoch: 275.4018°
orbit number at epoch: 89415

The dashed part of the orbit path shows where the satellite is in the earth's shadow,  

DLR